^^
Saratoga-Weather Station Historical Data
Daily Summary for January 1, 2020 Units:  English    Metric   Both
Daily Weekly Monthly Yearly Custom
  High: Low: Average:
Temperature: 53.1 °F 48.2 °F 51.8 °F
Dew Point: 51.6 °F 45.3 °F 49.8 °F
Humidity: 96% 89% 93%
Wind Speed: 16.1mph 0mph 0.3mph
Wind Gust: 18mph - -
Wind- - West
Pressure: 29.9 in 29.7 in -
Precipitation: 0.6 in    
Historical Graphs
 
 
Tabular Data for January 1, 2020
Time Temperature Dew Point Pressure Wind Wind Speed Wind Gust Humidity Rainfall Rate (Hourly) solar
00:00 51.8 °F 50.2 °F 29.9 in Calm     94% 0 in 0 W/m2
00:05 51.8 °F 50.2 °F 29.9 in Calm     94% 0 in 0 W/m2
00:10 51.8 °F 50.2 °F 29.9 in Calm     94% 0 in 0 W/m2
00:15 51.6 °F 50.2 °F 29.9 in Calm     95% 0.01 in 0 W/m2
00:20 51.6 °F 50.2 °F 29.9 in Calm     95% 0.01 in 0 W/m2
00:25 51.6 °F 50.2 °F 29.9 in Calm     95% 0.01 in 0 W/m2
00:30 51.6 °F 50.2 °F 29.9 in Calm     95% 0.01 in 0 W/m2
00:35 51.6 °F 50.2 °F 29.9 in Calm   1 mph 95% 0.01 in 0 W/m2
00:41 51.6 °F 50.2 °F 29.9 in Calm     95% 0.01 in 0 W/m2
00:46 51.4 °F 50 °F 29.9 in Calm     95% 0.01 in 0 W/m2
00:51 51.4 °F 50 °F 29.9 in Calm     95% 0.01 in 0 W/m2
00:56 51.4 °F 50 °F 29.9 in Calm     95% 0.01 in 0 W/m2
01:01 51.4 °F 50 °F 29.9 in Calm     95% 0.01 in 0 W/m2
01:06 51.4 °F 50 °F 29.9 in Calm     95% 0.01 in 0 W/m2
01:11 51.4 °F 49.8 °F 29.9 in Calm     94% 0.01 in 0 W/m2
01:16 51.4 °F 49.8 °F 29.9 in Calm     94% 0 in 0 W/m2
01:21 51.3 °F 49.6 °F 29.9 in Calm     94% 0 in 0 W/m2
01:26 51.3 °F 49.6 °F 29.9 in Calm     94% 0 in 0 W/m2
01:31 51.1 °F 49.5 °F 29.9 in Calm     94% 0 in 0 W/m2
01:36 51.3 °F 49.6 °F 29.9 in Calm     94% 0 in 0 W/m2
01:41 51.4 °F 49.8 °F 29.9 in Calm     94% 0 in 0 W/m2
01:46 51.4 °F 49.8 °F 29.9 in Calm   1 mph 94% 0 in 0 W/m2
01:51 51.6 °F 49.6 °F 29.9 in Calm     93% 0 in 0 W/m2
01:56 51.6 °F 49.6 °F 29.8 in Calm     93% 0 in 0 W/m2
02:01 51.6 °F 49.6 °F 29.8 in Calm   5 mph 93% 0 in 0 W/m2
02:06 51.6 °F 49.6 °F 29.8 in Calm     93% 0 in 0 W/m2
02:11 51.6 °F 49.6 °F 29.8 in Calm   5 mph 93% 0 in 0 W/m2
02:16 51.6 °F 49.6 °F 29.8 in Calm     93% 0 in 0 W/m2
02:21 51.6 °F 49.6 °F 29.8 in Calm     93% 0 in 0 W/m2
02:26 51.6 °F 49.6 °F 29.8 in Calm     93% 0 in 0 W/m2
02:31 51.6 °F 49.6 °F 29.8 in Calm     93% 0 in 0 W/m2
02:36 51.6 °F 49.6 °F 29.8 in Calm     93% 0 in 0 W/m2
02:42 51.6 °F 49.6 °F 29.8 in Calm     93% 0 in 0 W/m2
02:47 51.6 °F 49.6 °F 29.8 in Calm     93% 0 in 0 W/m2
02:52 51.6 °F 50 °F 29.8 in Calm     94% 0 in 0 W/m2
02:57 51.6 °F 50 °F 29.8 in Calm     94% 0 in 0 W/m2
03:02 51.4 °F 49.8 °F 29.8 in Calm     94% 0 in 0 W/m2
03:07 51.4 °F 49.8 °F 29.8 in Calm     94% 0 in 0 W/m2
03:12 51.4 °F 49.8 °F 29.8 in Calm     94% 0 in 0 W/m2
03:17 51.4 °F 49.8 °F 29.8 in Calm     94% 0 in 0 W/m2
03:22 51.4 °F 50 °F 29.8 in Calm     95% 0 in 0 W/m2
03:27 51.4 °F 50 °F 29.8 in Calm     95% 0 in 0 W/m2
03:32 51.3 °F 49.8 °F 29.8 in Calm     95% 0 in 0 W/m2
03:37 51.3 °F 49.8 °F 29.8 in Calm     95% 0.01 in 0 W/m2
03:42 51.3 °F 49.8 °F 29.8 in Calm     95% 0.01 in 0 W/m2
03:47 51.3 °F 49.8 °F 29.8 in Calm     95% 0.01 in 0 W/m2
03:52 51.3 °F 49.8 °F 29.8 in Calm     95% 0.01 in 0 W/m2
03:57 51.3 °F 49.8 °F 29.8 in Calm     95% 0.01 in 0 W/m2
04:02 51.3 °F 49.8 °F 29.8 in Calm     95% 0.01 in 0 W/m2
04:07 51.3 °F 49.8 °F 29.8 in Calm     95% 0.01 in 0 W/m2
04:13 51.3 °F 49.8 °F 29.8 in Calm     95% 0.01 in 0 W/m2
04:18 51.3 °F 49.8 °F 29.8 in Calm     95% 0.01 in 0 W/m2
04:23 51.3 °F 49.8 °F 29.8 in Calm     95% 0.01 in 0 W/m2
04:28 51.3 °F 49.8 °F 29.8 in Calm     95% 0.01 in 0 W/m2
04:33 51.3 °F 49.8 °F 29.8 in Calm     95% 0.01 in 0 W/m2
04:38 51.3 °F 49.8 °F 29.8 in Calm     95% 0 in 0 W/m2
04:43 51.3 °F 49.8 °F 29.8 in Calm     95% 0 in 0 W/m2
04:48 51.3 °F 49.8 °F 29.8 in Calm     95% 0 in 0 W/m2
04:53 51.3 °F 49.8 °F 29.8 in Calm     95% 0 in 0 W/m2
04:58 51.3 °F 49.8 °F 29.8 in Calm     95% 0 in 0 W/m2
05:03 51.3 °F 49.8 °F 29.8 in Calm     95% 0 in 0 W/m2
05:08 51.4 °F 50 °F 29.8 in Calm   8 mph 95% 0 in 0 W/m2
05:13 51.4 °F 50 °F 29.8 in Calm     95% 0 in 0 W/m2
05:18 51.4 °F 50 °F 29.8 in Calm   8 mph 95% 0 in 0 W/m2
05:23 51.4 °F 50 °F 29.8 in Calm     95% 0 in 0 W/m2
05:28 51.4 °F 50 °F 29.8 in Calm   7 mph 95% 0 in 0 W/m2
05:33 51.4 °F 50.4 °F 29.8 in Calm     96% 0 in 0 W/m2
05:38 51.4 °F 50.4 °F 29.8 in Calm   2 mph 96% 0 in 0 W/m2
05:43 51.4 °F 50.4 °F 29.8 in Calm     96% 0 in 0 W/m2
05:48 51.4 °F 50.4 °F 29.8 in Calm     96% 0 in 0 W/m2
05:53 51.6 °F 50.5 °F 29.8 in Calm     96% 0 in 0 W/m2
05:58 51.6 °F 50.5 °F 29.8 in Calm     96% 0 in 0 W/m2
06:03 51.6 °F 50.5 °F 29.8 in Calm   3 mph 96% 0 in 0 W/m2
06:08 51.8 °F 50.4 °F 29.8 in Calm     95% 0 in 0 W/m2
06:13 52 °F 50.5 °F 29.8 in Calm     95% 0 in 0 W/m2
06:18 52 °F 50.5 °F 29.8 in Calm     95% 0 in 0 W/m2
06:23 52 °F 50.5 °F 29.8 in Calm     95% 0 in 0 W/m2
06:28 52.2 °F 50.7 °F 29.8 in Calm     95% 0 in 0 W/m2
06:33 52.2 °F 50.7 °F 29.8 in Calm     95% 0 in 0 W/m2
06:38 52.2 °F 50.7 °F 29.8 in Calm   1 mph 95% 0 in 0 W/m2
06:43 52.3 °F 50.9 °F 29.7 in Calm     95% 0 in 0 W/m2
06:48 52.3 °F 50.7 °F 29.7 in Calm   1 mph 94% 0 in 0 W/m2
06:58 52.3 °F 50.9 °F 29.7 in Calm     95% 0 in 0 W/m2
07:03 52.3 °F 50.7 °F 29.7 in Calm     94% 0 in 0 W/m2
07:08 52.5 °F 50.9 °F 29.7 in Calm     94% 0 in 0 W/m2
07:13 52.5 °F 50.9 °F 29.7 in Calm     94% 0 in 0 W/m2
07:18 52.3 °F 50.7 °F 29.7 in Calm     94% 0.01 in 0 W/m2
07:23 52.3 °F 50.9 °F 29.7 in Calm     95% 0.02 in 0 W/m2
07:28 52.3 °F 50.9 °F 29.7 in Calm     95% 0.02 in 0 W/m2
07:33 52.3 °F 50.9 °F 29.7 in Calm     95% 0.02 in 0 W/m2
07:38 52.3 °F 50.9 °F 29.7 in Calm     95% 0.02 in 0 W/m2
07:43 52.3 °F 50.9 °F 29.7 in Calm     95% 0.03 in 0 W/m2
07:48 52.3 °F 50.9 °F 29.7 in Calm     95% 0.04 in 0 W/m2
07:53 52.2 °F 50.7 °F 29.7 in Calm     95% 0.05 in 0 W/m2
07:58 52.2 °F 50.7 °F 29.7 in Calm   1 mph 95% 0.06 in 0 W/m2
08:03 52.2 °F 50.7 °F 29.7 in Calm     95% 0.06 in 0 W/m2
08:08 52.2 °F 50.7 °F 29.7 in Calm     95% 0.07 in 0 W/m2
08:13 52.2 °F 50.7 °F 29.7 in Calm     95% 0.08 in 0 W/m2
08:18 52.2 °F 50.7 °F 29.7 in Calm     95% 0.07 in 0 W/m2
08:23 52.2 °F 50.7 °F 29.7 in Calm     95% 0.07 in 0 W/m2
08:28 52.2 °F 50.7 °F 29.7 in Calm     95% 0.08 in 0 W/m2
08:33 52.2 °F 50.7 °F 29.7 in Calm   4 mph 95% 0.08 in 0 W/m2
08:38 52.2 °F 50.7 °F 29.7 in Calm     95% 0.08 in 5 W/m2
08:43 52.2 °F 50.7 °F 29.7 in Calm   1 mph 95% 0.07 in 5 W/m2
08:48 52.2 °F 50.7 °F 29.7 in Calm   15 mph 95% 0.06 in 11 W/m2
08:53 52.2 °F 50.7 °F 29.7 in Calm     95% 0.06 in 9 W/m2
08:58 52.2 °F 50.7 °F 29.7 in Calm     95% 0.06 in 11 W/m2
09:03 52.2 °F 50.7 °F 29.7 in Calm   3 mph 95% 0.06 in 16 W/m2
09:08 52.3 °F 50.9 °F 29.7 in Calm   2 mph 95% 0.06 in 21 W/m2
09:13 52.2 °F 50.7 °F 29.7 in Calm     95% 0.06 in 14 W/m2
09:18 52.3 °F 50.9 °F 29.7 in Calm     95% 0.06 in 26 W/m2
09:23 52.3 °F 50.9 °F 29.7 in Calm     95% 0.06 in 30 W/m2
09:28 52.3 °F 50.9 °F 29.7 in Calm     95% 0.06 in 23 W/m2
09:33 52.3 °F 50.9 °F 29.7 in Calm     95% 0.06 in 23 W/m2
09:38 52.3 °F 50.9 °F 29.7 in Calm     95% 0.06 in 26 W/m2
09:43 52.3 °F 50.9 °F 29.7 in Calm     95% 0.07 in 18 W/m2
09:48 52.3 °F 50.9 °F 29.7 in Calm     95% 0.07 in 18 W/m2
09:54 52.3 °F 50.9 °F 29.7 in Calm     95% 0.07 in 14 W/m2
09:59 52.3 °F 50.9 °F 29.7 in Calm   9 mph 95% 0.08 in 21 W/m2
10:04 52.3 °F 50.9 °F 29.7 in Calm     95% 0.08 in 21 W/m2
10:09 52.3 °F 50.9 °F 29.7 in Calm   9 mph 95% 0.09 in 18 W/m2
10:14 52.3 °F 50.9 °F 29.7 in Calm     95% 0.08 in 21 W/m2
10:19 52.3 °F 50.9 °F 29.7 in Calm     95% 0.09 in 16 W/m2
10:24 52.3 °F 50.9 °F 29.7 in Calm     95% 0.09 in 18 W/m2
10:29 52.3 °F 50.9 °F 29.7 in Calm   10 mph 95% 0.11 in 19 W/m2
10:34 52.3 °F 50.9 °F 29.7 in Calm     95% 0.11 in 18 W/m2
10:39 52.3 °F 50.9 °F 29.7 in WNW 0.9 mph 1 mph 95% 0.1 in 21 W/m2
10:44 52.3 °F 50.9 °F 29.7 in Calm     95% 0.1 in 26 W/m2
10:49 52.3 °F 50.9 °F 29.7 in Calm     95% 0.11 in 35 W/m2
10:54 52.5 °F 51.1 °F 29.7 in Calm     95% 0.11 in 33 W/m2
10:59 52.5 °F 51.1 °F 29.7 in Calm     95% 0.11 in 42 W/m2
11:04 52.5 °F 51.1 °F 29.7 in Calm   7 mph 95% 0.1 in 44 W/m2
11:09 52.7 °F 51.3 °F 29.7 in NNW 0.9 mph 1 mph 95% 0.1 in 30 W/m2
11:14 52.7 °F 51.3 °F 29.7 in Calm     95% 0.1 in 30 W/m2
11:19 52.7 °F 51.3 °F 29.7 in Calm     95% 0.1 in 23 W/m2
11:24 52.7 °F 51.3 °F 29.7 in Calm     95% 0.1 in 16 W/m2
11:29 52.7 °F 51.3 °F 29.7 in Calm   1 mph 95% 0.11 in 18 W/m2
11:34 52.5 °F 51.1 °F 29.7 in Calm   4 mph 95% 0.11 in 18 W/m2
11:39 52.5 °F 51.1 °F 29.7 in Calm     95% 0.13 in 18 W/m2
11:44 52.5 °F 51.1 °F 29.7 in Calm     95% 0.13 in 23 W/m2
11:49 52.5 °F 51.1 °F 29.7 in Calm     95% 0.13 in 30 W/m2
11:54 52.5 °F 51.1 °F 29.7 in Calm     95% 0.13 in 33 W/m2
11:59 52.7 °F 51.3 °F 29.7 in Calm     95% 0.12 in 40 W/m2
12:04 52.9 °F 51.4 °F 29.7 in Calm     95% 0.12 in 37 W/m2
12:09 52.9 °F 51.4 °F 29.7 in Calm   2 mph 95% 0.11 in 53 W/m2
12:14 52.9 °F 51.4 °F 29.7 in Calm     95% 0.1 in 44 W/m2
12:19 52.9 °F 51.4 °F 29.7 in Calm   7 mph 95% 0.1 in 54 W/m2
12:24 52.9 °F 51.4 °F 29.7 in Calm   5 mph 95% 0.09 in 37 W/m2
12:29 52.9 °F 51.4 °F 29.7 in Calm   7 mph 95% 0.06 in 42 W/m2
12:34 52.9 °F 51.4 °F 29.7 in Calm   3 mph 95% 0.06 in 56 W/m2
12:39 52.9 °F 51.3 °F 29.7 in SSW 6.9 mph 9 mph 94% 0.04 in 69 W/m2
12:44 52.9 °F 51.3 °F 29.7 in Calm     94% 0.02 in 46 W/m2
12:49 52.9 °F 51.3 °F 29.7 in Calm     94% 0.02 in 42 W/m2
12:54 52.9 °F 51.3 °F 29.7 in Calm   5 mph 94% 0.02 in 44 W/m2
12:59 52.9 °F 51.3 °F 29.7 in Calm   5 mph 94% 0.02 in 47 W/m2
13:04 52.9 °F 51.3 °F 29.7 in Calm   11 mph 94% 0.02 in 42 W/m2
13:09 52.9 °F 51.3 °F 29.7 in Calm     94% 0.02 in 33 W/m2
13:14 52.9 °F 51.3 °F 29.7 in West 14.1 mph 14 mph 94% 0.02 in 53 W/m2
13:19 52.9 °F 51.3 °F 29.7 in Calm   1 mph 94% 0.01 in 62 W/m2
13:24 52.9 °F 51.3 °F 29.7 in WSW 14 mph 14 mph 94% 0.01 in 62 W/m2
13:29 52.9 °F 51.4 °F 29.7 in Calm     95% 0.01 in 65 W/m2
13:34 53.1 °F 51.6 °F 29.7 in Calm     95% 0.01 in 56 W/m2
13:40 53.1 °F 51.6 °F 29.7 in Calm   1 mph 95% 0.01 in 72 W/m2
13:45 53.1 °F 51.6 °F 29.7 in Calm   1 mph 95% 0.01 in 54 W/m2
13:50 53.1 °F 51.6 °F 29.7 in Calm   7 mph 95% 0.01 in 63 W/m2
13:55 53.1 °F 51.6 °F 29.7 in Calm   4 mph 95% 0.01 in 58 W/m2
14:00 53.1 °F 51.4 °F 29.7 in Calm   7 mph 94% 0 in 65 W/m2
14:05 53.1 °F 51.4 °F 29.7 in Calm   6 mph 94% 0.01 in 58 W/m2
14:10 52.9 °F 51.4 °F 29.7 in Calm     95% 0.01 in 54 W/m2
14:15 52.9 °F 51.4 °F 29.7 in WSW 13 mph 13 mph 95% 0.02 in 35 W/m2
14:20 52.9 °F 51.4 °F 29.8 in Calm   1 mph 95% 0.05 in 46 W/m2
14:25 52.7 °F 51.3 °F 29.8 in Calm   5 mph 95% 0.05 in 93 W/m2
14:30 52.3 °F 50.7 °F 29.8 in Calm     94% 0.06 in 195 W/m2
14:35 52.2 °F 50.5 °F 29.8 in WNW 10.1 mph 15 mph 94% 0.06 in 207 W/m2
14:40 52.2 °F 50.5 °F 29.8 in Calm   1 mph 94% 0.06 in 149 W/m2
14:45 52 °F 50 °F 29.8 in Calm   15 mph 93% 0.06 in 67 W/m2
14:50 52 °F 50 °F 29.8 in Calm   15 mph 93% 0.06 in 165 W/m2
14:55 52 °F 50 °F 29.8 in Calm     93% 0.06 in 100 W/m2
15:00 52 °F 50.4 °F 29.8 in Calm   11 mph 94% 0.06 in 65 W/m2
15:05 52 °F 50.4 °F 29.8 in Calm     94% 0.06 in 60 W/m2
15:10 52 °F 50 °F 29.8 in Calm     93% 0.06 in 74 W/m2
15:15 52.2 °F 50.2 °F 29.8 in Calm     93% 0.05 in 137 W/m2
15:20 52.2 °F 50.2 °F 29.8 in WNW 8.1 mph 12 mph 93% 0.02 in 102 W/m2
15:25 52.3 °F 50.4 °F 29.8 in Calm     93% 0.02 in 84 W/m2
15:30 52.3 °F 50.4 °F 29.8 in Calm     93% 0.01 in 97 W/m2
15:35 52.5 °F 50.5 °F 29.8 in Calm   1 mph 93% 0.01 in 76 W/m2
15:40 52.5 °F 50.5 °F 29.8 in Calm     93% 0.01 in 26 W/m2
15:45 52.3 °F 50.4 °F 29.8 in Calm   1 mph 93% 0.01 in 30 W/m2
15:50 52.3 °F 50.4 °F 29.8 in Calm     93% 0 in 90 W/m2
15:55 52.3 °F 50.4 °F 29.8 in Calm   1 mph 93% 0 in 79 W/m2
16:01 52.3 °F 50.4 °F 29.8 in Calm     93% 0 in 49 W/m2
16:06 52.3 °F 50.4 °F 29.8 in Calm   9 mph 93% 0 in 25 W/m2
16:11 52.3 °F 50 °F 29.8 in Calm     92% 0 in 37 W/m2
16:16 52.3 °F 50 °F 29.8 in Calm   4 mph 92% 0 in 30 W/m2
16:21 52.3 °F 49.8 °F 29.8 in Calm   3 mph 91% 0 in 21 W/m2
16:26 52.2 °F 49.6 °F 29.8 in Calm     91% 0 in 37 W/m2
16:31 52.2 °F 49.6 °F 29.8 in Calm   1 mph 91% 0 in 37 W/m2
16:36 52.2 °F 49.3 °F 29.8 in Calm     90% 0 in 37 W/m2
16:41 52.2 °F 49.3 °F 29.8 in Calm     90% 0 in 19 W/m2
16:46 52.2 °F 49.3 °F 29.8 in Calm     90% 0 in 18 W/m2
16:51 52.2 °F 49.3 °F 29.8 in Calm     90% 0 in 14 W/m2
16:56 52.2 °F 49.3 °F 29.8 in Calm     90% 0 in 5 W/m2
17:01 52.2 °F 49.3 °F 29.8 in Calm     90% 0 in 11 W/m2
17:06 52.2 °F 49.3 °F 29.8 in Calm     90% 0 in 7 W/m2
17:11 52 °F 49.1 °F 29.8 in Calm     90% 0 in 0 W/m2
17:16 52 °F 49.1 °F 29.8 in Calm   1 mph 90% 0 in 0 W/m2
17:21 52 °F 49.1 °F 29.8 in Calm     90% 0 in 0 W/m2
17:26 52 °F 49.5 °F 29.8 in Calm     91% 0 in 0 W/m2
17:31 51.6 °F 49.1 °F 29.8 in WSW 0.9 mph 6 mph 91% 0 in 0 W/m2
17:36 51.6 °F 49.1 °F 29.8 in Calm   2 mph 91% 0 in 0 W/m2
17:42 51.4 °F 49.3 °F 29.8 in Calm   6 mph 92% 0 in 0 W/m2
17:47 51.4 °F 49.3 °F 29.8 in Calm     92% 0 in 0 W/m2
17:52 51.3 °F 49.1 °F 29.8 in Calm   4 mph 92% 0 in 0 W/m2
17:57 51.3 °F 49.1 °F 29.8 in Calm     92% 0 in 0 W/m2
18:02 51.3 °F 49.1 °F 29.8 in Calm     92% 0 in 0 W/m2
18:07 51.1 °F 48.9 °F 29.8 in Calm     92% 0 in 0 W/m2
18:12 51.1 °F 48.9 °F 29.8 in Calm     92% 0 in 0 W/m2
18:17 51.1 °F 48.9 °F 29.8 in Calm     92% 0 in 0 W/m2
18:22 51.1 °F 48.9 °F 29.8 in Calm     92% 0 in 0 W/m2
18:27 51.1 °F 48.6 °F 29.8 in Calm     91% 0 in 0 W/m2
18:32 51.1 °F 48.6 °F 29.8 in Calm     91% 0 in 0 W/m2
18:37 51.1 °F 48.6 °F 29.8 in Calm     91% 0 in 0 W/m2
18:42 51.1 °F 48.6 °F 29.8 in Calm     91% 0 in 0 W/m2
18:47 51.1 °F 48.6 °F 29.8 in Calm     91% 0 in 0 W/m2
18:52 51.3 °F 48.7 °F 29.8 in Calm   7 mph 91% 0 in 0 W/m2
18:57 51.3 °F 48.7 °F 29.8 in Calm     91% 0 in 0 W/m2
19:02 51.4 °F 48.9 °F 29.8 in Calm   1 mph 91% 0 in 0 W/m2
19:07 51.4 °F 48.9 °F 29.8 in Calm     91% 0 in 0 W/m2
19:12 51.4 °F 48.9 °F 29.8 in Calm   1 mph 91% 0 in 0 W/m2
19:17 51.6 °F 49.1 °F 29.8 in Calm     91% 0 in 0 W/m2
19:22 51.6 °F 49.1 °F 29.8 in Calm     91% 0 in 0 W/m2
19:27 51.6 °F 49.1 °F 29.8 in Calm     91% 0 in 0 W/m2
19:32 51.8 °F 49.3 °F 29.8 in Calm     91% 0 in 0 W/m2
19:37 52 °F 49.5 °F 29.8 in Calm   1 mph 91% 0 in 0 W/m2
19:42 52 °F 49.5 °F 29.8 in Calm     91% 0 in 0 W/m2
19:47 52.2 °F 49.6 °F 29.8 in Calm   1 mph 91% 0 in 0 W/m2
19:52 52.2 °F 49.6 °F 29.8 in Calm     91% 0 in 0 W/m2
19:57 52.3 °F 49.5 °F 29.8 in Calm     90% 0 in 0 W/m2
20:02 52.3 °F 49.5 °F 29.8 in Calm     90% 0 in 0 W/m2
20:07 52.5 °F 49.6 °F 29.8 in Calm     90% 0 in 0 W/m2
20:12 52.5 °F 49.6 °F 29.8 in Calm     90% 0 in 0 W/m2
20:18 52.5 °F 49.6 °F 29.9 in Calm     90% 0.01 in 0 W/m2
20:23 52.3 °F 49.5 °F 29.9 in Calm     90% 0.02 in 0 W/m2
20:28 52.3 °F 49.5 °F 29.9 in Calm   17 mph 90% 0.02 in 0 W/m2
20:33 52.2 °F 49.3 °F 29.9 in Calm   1 mph 90% 0.02 in 0 W/m2
20:38 52.2 °F 49.3 °F 29.9 in Calm     90% 0.02 in 0 W/m2
20:43 52.2 °F 49.3 °F 29.9 in Calm     90% 0.02 in 0 W/m2
20:48 52 °F 49.5 °F 29.9 in Calm     91% 0.02 in 0 W/m2
20:53 52 °F 49.5 °F 29.9 in Calm   18 mph 91% 0.02 in 0 W/m2
20:58 51.8 °F 49.3 °F 29.9 in Calm     91% 0.02 in 0 W/m2
21:03 51.8 °F 49.3 °F 29.9 in Calm   18 mph 91% 0.02 in 0 W/m2
21:08 51.8 °F 49.3 °F 29.9 in Calm   6 mph 91% 0.02 in 0 W/m2
21:13 51.8 °F 49.3 °F 29.9 in Calm   11 mph 91% 0.02 in 0 W/m2
21:18 51.6 °F 49.1 °F 29.9 in Calm   1 mph 91% 0.02 in 0 W/m2
21:23 51.6 °F 49.1 °F 29.9 in Calm   11 mph 91% 0.02 in 0 W/m2
21:28 51.4 °F 48.9 °F 29.9 in WNW 16.1 mph 18 mph 91% 0.02 in 0 W/m2
21:33 51.4 °F 49.3 °F 29.9 in Calm     92% 0.02 in 0 W/m2
21:38 51.4 °F 49.3 °F 29.9 in Calm   18 mph 92% 0.03 in 0 W/m2
21:43 51.3 °F 49.1 °F 29.9 in Calm     92% 0.05 in 0 W/m2
21:48 51.1 °F 49.1 °F 29.9 in Calm     93% 0.06 in 0 W/m2
21:53 50.9 °F 48.9 °F 29.9 in Calm   1 mph 93% 0.06 in 0 W/m2
21:58 50.9 °F 48.9 °F 29.9 in Calm   1 mph 93% 0.06 in 0 W/m2
22:03 50.9 °F 48.9 °F 29.9 in Calm     93% 0.06 in 0 W/m2
22:08 50.9 °F 48.9 °F 29.9 in Calm   2 mph 93% 0.06 in 0 W/m2
22:13 50.9 °F 48.9 °F 29.9 in Calm     93% 0.06 in 0 W/m2
22:18 50.9 °F 48.9 °F 29.9 in Calm     93% 0.05 in 0 W/m2
22:23 50.7 °F 48.7 °F 29.9 in Calm     93% 0.05 in 0 W/m2
22:28 50.5 °F 48.4 °F 29.9 in Calm     92% 0.04 in 0 W/m2
22:33 50.2 °F 47.3 °F 29.9 in Calm   2 mph 90% 0.04 in 0 W/m2
22:38 50 °F 46.9 °F 29.9 in Calm     89% 0.03 in 0 W/m2
22:43 49.6 °F 46.6 °F 29.9 in Calm     89% 0.01 in 0 W/m2
22:48 49.5 °F 46.4 °F 29.9 in Calm     89% 0 in 0 W/m2
22:53 49.3 °F 46.2 °F 29.9 in Calm     89% 0 in 0 W/m2
22:58 48.9 °F 45.9 °F 29.9 in Calm     89% 0 in 0 W/m2
23:03 48.7 °F 45.7 °F 29.9 in Calm     89% 0 in 0 W/m2
23:08 48.7 °F 45.7 °F 29.9 in Calm     89% 0 in 0 W/m2
23:13 48.6 °F 45.5 °F 29.9 in Calm     89% 0 in 0 W/m2
23:18 48.6 °F 45.5 °F 29.9 in Calm     89% 0 in 0 W/m2
23:23 48.4 °F 45.5 °F 29.9 in Calm     90% 0 in 0 W/m2
23:28 48.4 °F 45.5 °F 29.9 in Calm     90% 0 in 0 W/m2
23:33 48.2 °F 45.3 °F 29.9 in Calm     90% 0 in 0 W/m2
23:38 48.2 °F 45.7 °F 29.9 in Calm     91% 0 in 0 W/m2
23:43 48.2 °F 45.7 °F 29.9 in Calm     91% 0 in 0 W/m2
23:48 48.2 °F 45.7 °F 29.9 in Calm     91% 0 in 0 W/m2
23:53 48.4 °F 46.2 °F 29.9 in Calm     92% 0 in 0 W/m2
23:58 48.4 °F 46.2 °F 29.9 in Calm     92% 0 in 0 W/m2
Juneau County Weather
Compliments of Weather Underground - 4 mb